Location: Saint Louis
(38.6272°N, 90.1978°W)
Time: 08:40:10

Hubble Space Telescope - Visible Passes

Search period start: 13 October 2015 00:00
Search period end: 23 October 2015 00:00
Orbit: 541 x 545 km, 28.5° (Epoch: 12 October)

Date Brightness Start Highest point End Pass type
(mag) Time Alt. Az. Time Alt. Az. Time Alt. Az.
19 Oct 3.4 06:47:01 10° SSW 06:49:03 13° SSE 06:51:09 10° SE visible
20 Oct 3.3 06:37:26 10° SSW 06:39:53 15° SSE 06:42:22 10° SE visible
21 Oct 3.1 06:28:01 10° SSW 06:30:44 17° S 06:33:28 10° SE visible
22 Oct 2.9 06:18:41 10° SW 06:21:34 18° S 06:24:28 10° SE visible
